This demonstration page uses our WeatherBlox Daily Observations layout. Learn more.

Hourly Observations for September 22, 2016

Temp ( °F °C ) Dew Point ( °F °C ) Humidity (%) Winds ( mph kmh ) Pressure ( in mb ) Visibility ( mi km ) Precip ( " mm )
12:15 am 00:15 Clear 75 24.1 61 16.2 61 61 S 12 19 29.77 1008 10 16.09344 0 0
12:35 am 00:35 Clear 75 24 61 16 61 61 S 13 20 29.74 1007 10 16.09344 0 0
12:55 am 00:55 Clear 74 23.6 60 15.7 61 61 S 13 20 29.74 1007 10 16.09344 0 0
1:15 am 01:15 Clear 75 23.9 59 15.2 58 58 S 13 20 29.74 1007 10 16.09344 0 0
1:35 am 01:35 Clear 75 24 59 14.9 57 57 S 14 22 29.74 1007 10 16.09344 0 0
1:55 am 01:55 Clear 75 23.7 58 14.7 57 57 S 10 17 29.74 1007 10 16.09344 0 0
2:15 am 02:15 Clear 74 23.5 59 14.8 58 58 SSW 12 19 29.74 1007 10 16.09344 0 0
2:35 am 02:35 Clear 74 23.2 58 14.7 59 59 SSW 9 15 29.74 1007 10 16.09344 0 0
2:55 am 02:55 Clear 73 22.9 58 14.7 60 60 SSW 8 13 29.74 1007 10 16.09344 0 0
3:15 am 03:15 Clear 72 22.1 58 14.7 63 63 S 8 13 29.74 1007 10 16.09344 0 0
3:35 am 03:35 Clear 71 21.5 58 14.7 65 65 S 8 13 29.77 1008 10 16.09344 0 0
3:55 am 03:55 Clear 70 20.9 58 14.6 67 67 SSW 7 11 29.77 1008 10 16.09344 0 0
4:15 am 04:15 Clear 67 19.5 58 14.5 73 73 SW 3 6 29.77 1008 10 16.09344 0 0
4:35 am 04:35 Clear 66 19.1 58 14.6 75 75 WSW 3 6 29.77 1008 10 16.09344 0 0
4:55 am 04:55 Clear 66 18.8 58 14.5 76 76 Calm 29.8 1009 10 16.09344 0 0
5:15 am 05:15 Clear 63 17.4 59 14.8 85 85 NW 5 7 29.83 1010 10 16.09344 0 0
5:35 am 05:35 Clear 62 16.9 58 14.6 86 86 NW 7 11 29.83 1010 10 16.09344 0 0
5:55 am 05:55 Clear 61 16.1 58 14.6 91 91 NNW 7 11 29.83 1010 10 16.09344 0 0
6:15 am 06:15 Clear 60 15.8 58 14.6 93 93 NNW 6 9 29.85 1011 10 16.09344 0 0
6:35 am 06:35 Mostly Cloudy 61 16 59 15 94 94 N 6 9 29.85 1011 7 11.265408 0 0
6:55 am 06:55 Cloudy with Mist and Fog 61 16.2 60 15.5 96 96 N 8 13 29.85 1011 1 1.609344 0 0
7:15 am 07:15 Cloudy with Fog 62 16.5 61 15.9 96 96 N 7 11 29.85 1011 0.5 0.804672 0 0
7:35 am 07:35 Cloudy with Mist and Fog 63 17 62 16.5 97 97 N 7 11 29.85 1011 0.75 1.207008 0 0
7:55 am 07:55 Cloudy with Mist and Fog 63 17.4 62 16.7 96 96 N 8 13 29.85 1011 1 1.609344 0 0
8:15 am 08:15 Cloudy with Mist and Fog 64 17.7 63 17.1 96 96 N 7 11 29.85 1011 2.5 4.02336 0 0
8:35 am 08:35 Cloudy 64 18 63 17.4 96 96 N 7 11 29.88 1012 7 11.265408 0 0
8:55 am 08:55 Cloudy 65 18.5 64 17.5 94 94 N 6 9 29.88 1012 10 16.09344 0 0
9:15 am 09:15 Cloudy 66 18.8 63 17.3 91 91 N 7 11 29.88 1012 10 16.09344 0 0
9:35 am 09:35 Cloudy 66 18.8 63 17.3 91 91 N 7 11 29.88 1012 10 16.09344 0 0
9:55 am 09:55 Cloudy 66 18.7 63 17.3 92 92 N 8 13 29.88 1012 7 11.265408 0 0
10:15 am 10:15 Cloudy 66 19 63 17.4 91 91 N 7 11 29.85 1011 10 16.09344 0 0
10:35 am 10:35 Cloudy 67 19.3 64 17.5 89 89 N 7 11 29.85 1011 10 16.09344 0 0
10:55 am 10:55 Cloudy 67 19.2 64 17.5 90 90 N 5 7 29.85 1011 7 11.265408 0 0
11:15 am 11:15 Cloudy 66 19.1 63 17.4 90 90 NNE 7 11 29.85 1011 7 11.265408 0 0
11:35 am 11:35 Cloudy 66 19 63 17.2 89 89 N 6 9 29.85 1011 7 11.265408 0 0
11:55 am 11:55 Cloudy 66 19.1 63 17.3 89 89 N 6 9 29.91 1013 7 11.265408 0 0
12:15 pm 12:15 Cloudy 67 19.2 63 17.3 89 89 N 5 7 29.85 1011 10 16.09344 0 0
12:35 pm 12:35 Cloudy 67 19.3 64 17.5 89 89 NNE 3 6 29.85 1011 7 11.265408 0 0
12:55 pm 12:55 Cloudy 67 19.3 63 17.4 89 89 NNE 5 7 29.88 1012 7 11.265408 0 0
1:15 pm 13:15 Cloudy 68 20 64 17.6 86 86 NNE 3 6 29.88 1012 10 16.09344 0 0
1:35 pm 13:35 Cloudy 69 20.4 63 17.4 83 83 NNE 7 11 29.88 1012 10 16.09344 0 0
1:55 pm 13:55 Cloudy 69 20.8 63 17.4 81 81 NE 8 13 29.88 1012 7 11.265408 0 0
2:15 pm 14:15 Cloudy 70 21.2 63 17.4 79 79 NNE 9 15 29.88 1012 10 16.09344 0 0
2:35 pm 14:35 Mostly Cloudy 71 21.5 63 17.2 77 77 NNE 9 15 29.85 1011 10 16.09344 0 0
2:55 pm 14:55 Mostly Cloudy 71 21.7 63 17.4 77 77 NE 8 13 29.85 1011 10 16.09344 0 0
3:15 pm 15:15 Mostly Cloudy 72 22.4 63 17 72 72 NNE 7 11 29.85 1011 10 16.09344 0 0
3:35 pm 15:35 Partly Cloudy 73 22.5 64 17.5 73 73 N 7 11 29.83 1010 10 16.09344 0 0
3:55 pm 15:55 Partly Cloudy 73 22.6 63 17.4 73 73 NNE 8 13 29.83 1010 10 16.09344 0 0
4:15 pm 16:15 Partly Cloudy 73 23 63 17.4 71 71 N 8 13 29.8 1009 10 16.09344 0 0
4:35 pm 16:35 Sunny 73 23 63 17.2 70 70 N 8 13 29.8 1009 10 16.09344 0 0
4:55 pm 16:55 Sunny 74 23.4 63 17.4 69 69 NNE 5 7 29.8 1009 10 16.09344 0 0
5:15 pm 17:15 Sunny 73 23 63 17.1 70 70 NNE 7 11 29.8 1009 10 16.09344 0 0
5:35 pm 17:35 Sunny 73 22.9 63 17.3 71 71 NE 10 17 29.8 1009 10 16.09344 0 0
5:55 pm 17:55 Sunny 73 22.5 63 17.1 72 72 NNE 13 20 29.8 1009 10 16.09344 0 0
6:15 pm 18:15 Sunny 72 22.2 63 17.1 73 73 NNE 12 19 29.8 1009 10 16.09344 0 0
6:35 pm 18:35 Sunny 71 21.7 63 17.2 76 76 NNE 10 17 29.83 1010 10 16.09344 0 0
6:55 pm 18:55 Sunny 70 21.1 63 17.3 79 79 NNE 9 15 29.83 1010 10 16.09344 0 0
7:15 pm 19:15 Sunny 69 20.5 63 17.2 81 81 NNE 9 15 29.8 1009 10 16.09344 0 0
7:35 pm 19:35 Clear 68 20.1 63 17.1 83 83 NNE 8 13 29.8 1009 10 16.09344 0 0
7:55 pm 19:55 Clear 67 19.5 63 17 86 86 NNE 7 11 29.8 1009 10 16.09344 0 0
8:15 pm 20:15 Clear 66 19 63 17 88 88 NNE 7 11 29.8 1009 10 16.09344 0 0
8:35 pm 20:35 Clear 66 18.8 63 17 89 89 NE 8 13 29.8 1009 10 16.09344 0 0
8:55 pm 20:55 Clear 65 18.6 62 16.9 90 90 NE 5 7 29.8 1009 10 16.09344 0 0
9:15 pm 21:15 Clear 65 18.6 63 17 90 90 NE 8 13 29.83 1010 10 16.09344 0 0
9:35 pm 21:35 Clear 65 18.3 62 16.7 90 90 ENE 6 9 29.85 1011 10 16.09344 0 0
9:55 pm 21:55 Clear 65 18.1 62 16.9 93 93 E 6 9 29.85 1011 10 16.09344 0 0
10:15 pm 22:15 Clear 65 18.3 63 17 92 92 NNE 5 7 29.85 1011 10 16.09344 0 0
10:35 pm 22:35 Clear 65 18.1 62 16.9 93 93 NE 3 6 29.85 1011 10 16.09344 0 0
10:55 pm 22:55 Clear 65 18.1 63 17 93 93 E 3 6 29.85 1011 10 16.09344 0 0
11:15 pm 23:15 Clear 66 18.7 63 17.3 92 92 Calm 29.83 1010 10 16.09344 0 0
11:35 pm 23:35 Clear 65 18.3 63 17.1 93 93 Calm 29.85 1011 10 16.09344 0 0
11:55 pm 23:55 Clear 64 17.7 62 16.7 94 94 Calm 29.85 1011 7 11.265408 0 0

Powered by AerisWeather